Change the Weather History Date:

Monday, April 9, 2012

  Actual Average Record
Temperature  
Mean Temperature 47 °F 47 °F  
Max Temperature 64 °F 59 °F 89 °F (1930)
Min Temperature 29 °F 35 °F 8 °F (1928)
Degree Days  
Heating Degree Days 18 18  
Month to date heating degree days 93 177  
Since 1 July heating degree days 5088 6126  
Cooling Degree Days 0 0  
Month to date cooling degree days 8 0  
Year to date cooling degree days 29 0  
Moisture  
Dew Point 20 °F    
Average Humidity 44    
Maximum Humidity 69    
Minimum Humidity 19    
Precipitation  
Precipitation 0.00 in 0.08 in 1.75 in (2013)
Month to date precipitation T 0.69  
Year to date precipitation 2.49 3.81  
Snow  
Snow 0.00 in 0.10 in - ()
Month to date snowfall 0.0 1.1  
Since 1 July snowfall 15.3 29.0  
Snow Depth 0.00 in    
Sea Level Pressure  
Sea Level Pressure 30.23 in    
Wind  
Wind Speed 9 mph (NW)    
Max Wind Speed 24 mph    
Max Gust Speed 30 mph    
Visibility 10 miles    
Events      
T = Trace of Precipitation, MM = Missing Value Source: NWS Daily Summary

Daily Weather History Graph

Daily Weather History Graph

Search for Another Location

Airport or City:

Trip Planner

Search our weather history database for the weather conditions in past years. The results will help you decide how hot, cold, wet, or windy it might be!

Date:

Astronomy

Apr. 09, 2012 Rise Set
Actual Time 6:58 AM CDT 8:04 PM CDT
Civil Twilight 6:29 AM CDT 8:33 PM CDT
Nautical Twilight 5:55 AM CDT 9:07 PM CDT
Astronomical Twilight 5:19 AM CDT 9:43 PM CDT
Moon No Moon Rise 8:43 AM CDT (4/9)
Length of Visible Light 14h 03m
Length of Day
13h 06m
Waning Gibbous, 88% of the Moon is Illuminated
Apr 9
Waning Gibbous
Apr 13
Last Quarter
Apr 21
New
Apr 29
First Quarter
May 5
Full

Hourly Weather History & Observations

Time (CDT) Temp. Windchill Dew Point Humidity Pressure Visibility Wind Dir Wind Speed Gust Speed Precip Events Conditions
12:56 AM 37.9 °F 33.5 °F 21.0 °F 51% 30.23 in 10.0 mi West 5.8 mph - N/A   Clear
1:56 AM 39.0 °F - 19.9 °F 46% 30.22 in 10.0 mi Calm Calm - N/A   Clear
2:56 AM 37.0 °F 34.5 °F 21.0 °F 52% 30.23 in 10.0 mi West 3.5 mph - N/A   Clear
3:56 AM 34.0 °F - 21.0 °F 59% 30.23 in 10.0 mi Calm Calm - N/A   Clear
4:56 AM 34.0 °F 31.0 °F 25.0 °F 70% 30.21 in 10.0 mi Variable 3.5 mph - N/A   Clear
5:56 AM 32.0 °F 26.4 °F 21.9 °F 66% 30.23 in 10.0 mi SW 5.8 mph - N/A   Clear
6:56 AM 30.9 °F 27.5 °F 21.0 °F 67% 30.25 in 10.0 mi WNW 3.5 mph - N/A   Clear
7:56 AM 37.0 °F 33.3 °F 21.9 °F 54% 30.26 in 10.0 mi WNW 4.6 mph - N/A   Clear
9:56 AM 52.0 °F - 21.9 °F 31% 30.28 in 10.0 mi NW 6.9 mph - N/A   Clear
10:56 AM 57.9 °F - 21.0 °F 24% 30.27 in 10.0 mi NNW 15.0 mph 23.0 mph N/A   Clear
11:56 AM 60.1 °F - 19.0 °F 20% 30.27 in 10.0 mi NNW 20.7 mph 25.3 mph N/A   Clear
12:56 PM 61.0 °F - 19.0 °F 20% 30.25 in 10.0 mi North 15.0 mph 21.9 mph N/A   Clear
1:56 PM 64.0 °F - 21.0 °F 19% 30.22 in 10.0 mi NNW 16.1 mph 29.9 mph N/A   Clear
2:56 PM 63.0 °F - 21.0 °F 20% 30.22 in 10.0 mi NW 15.0 mph 20.7 mph N/A   Clear
3:56 PM 62.1 °F - 21.0 °F 21% 30.21 in 10.0 mi NNW 17.3 mph 25.3 mph N/A   Clear
4:56 PM 62.1 °F - 21.9 °F 21% 30.19 in 10.0 mi NNW 10.4 mph 28.8 mph N/A   Clear
5:56 PM 60.1 °F - 21.0 °F 22% 30.20 in 10.0 mi NNW 13.8 mph - N/A   Clear
6:56 PM 57.9 °F - 19.0 °F 22% 30.20 in 10.0 mi North 16.1 mph 21.9 mph N/A   Clear
8:56 PM 48.9 °F - 17.1 °F 28% 30.22 in 10.0 mi NNW 9.2 mph - N/A   Clear
9:56 PM 45.0 °F 41.2 °F 16.0 °F 31% 30.22 in 10.0 mi North 6.9 mph - N/A   Clear
10:56 PM 42.1 °F 39.2 °F 16.0 °F 35% 30.24 in 10.0 mi NNW 4.6 mph - N/A   Clear
11:56 PM 39.9 °F - 15.1 °F 36% 30.25 in 10.0 mi Calm Calm - N/A   Clear